| time (UTC) | temp F | wind direction | speed knots | gust knots | rain 1hr in | rain 24hr in | rain mn in | humidity % | barometer mb |
| 20260510193023 | 64 | 341 | 3.5 | 7.0 | 0.00 | 0.00 | 0.00 | 36 | 1017.0 |
| 20260510192520 | 63 | 328 | 3.5 | 12.2 | 0.00 | 0.00 | 0.00 | 37 | 1017.0 |
| 20260510192016 | 62 | 295 | 2.6 | 7.0 | 0.00 | 0.00 | 0.00 | 37 | 1017.1 |
| 20260510191533 | 62 | 287 | 2.6 | 7.8 | 0.00 | 0.00 | 0.00 | 36 | 1017.1 |
| 20260510191030 | 62 | 314 | 2.6 | 8.7 | 0.00 | 0.00 | 0.00 | 36 | 1017.1 |
| 20260510190527 | 62 | 327 | 2.6 | 9.6 | 0.00 | 0.00 | 0.00 | 37 | 1017.2 |
| 20260510190024 | 62 | 335 | 2.6 | 12.2 | 0.00 | 0.00 | 0.00 | 36 | 1017.1 |
| 20260510185521 | 62 | 336 | 1.7 | 2.6 | 0.00 | 0.00 | 0.00 | 38 | 1017.2 |
| 20260510185019 | 62 | 305 | 1.7 | 8.7 | 0.00 | 0.00 | 0.00 | 37 | 1017.2 |
| 20260510184534 | 63 | 315 | 2.6 | 11.3 | 0.00 | 0.00 | 0.00 | 36 | 1017.3 |
| 20260510184031 | 63 | 326 | 2.6 | 8.7 | 0.00 | 0.00 | 0.00 | 37 | 1017.2 |
| 20260510183528 | 63 | 325 | 1.7 | 7.0 | 0.00 | 0.00 | 0.00 | 36 | 1017.1 |
| 20260510183024 | 64 | 324 | 2.6 | 8.7 | 0.00 | 0.00 | 0.00 | 36 | 1017.4 |
| 20260510182522 | 64 | 309 | 3.5 | 8.7 | 0.00 | 0.00 | 0.00 | 36 | 1017.2 |
| 20260510182019 | 64 | 327 | 2.6 | 7.8 | 0.00 | 0.00 | 0.00 | 37 | 1017.3 |
| 20260510181534 | 64 | 310 | 1.7 | 5.2 | 0.00 | 0.00 | 0.00 | 37 | 1017.4 |
| 20260510181031 | 63 | 172 | 2.6 | 8.7 | 0.00 | 0.00 | 0.00 | 38 | 1017.3 |
| 20260510180528 | 63 | 305 | 1.7 | 7.8 | 0.00 | 0.00 | 0.00 | 38 | 1017.4 |
| 20260510180025 | 62 | 307 | 0.9 | 3.5 | 0.00 | 0.00 | 0.00 | 38 | 1017.3 |
| 20260510175523 | 62 | 315 | 1.7 | 6.1 | 0.00 | 0.00 | 0.00 | 38 | 1017.4 |
| 20260510175019 | 62 | 301 | 1.7 | 5.2 | 0.00 | 0.00 | 0.00 | 38 | 1017.3 |
| 20260510174535 | 62 | 329 | 1.7 | 9.6 | 0.00 | 0.00 | 0.00 | 36 | 1017.5 |
| 20260510174051 | 63 | 312 | 2.6 | 7.8 | 0.00 | 0.00 | 0.00 | 37 | 1017.4 |
| 20260510173528 | 63 | 322 | 2.6 | 6.1 | 0.00 | 0.00 | 0.00 | 37 | 1017.4 |
| 20260510173025 | 63 | 299 | 2.6 | 8.7 | 0.00 | 0.00 | 0.00 | 38 | 1017.4 |
| 20260510172522 | 62 | 337 | 3.5 | 8.7 | 0.00 | 0.00 | 0.00 | 38 | 1017.4 |
| 20260510172039 | 62 | 312 | 2.6 | 8.7 | 0.00 | 0.00 | 0.00 | 38 | 1017.3 |
| 20260510171535 | 62 | 329 | 4.3 | 12.2 | 0.00 | 0.00 | 0.00 | 38 | 1017.4 |
| 20260510171032 | 62 | 292 | 2.6 | 7.0 | 0.00 | 0.00 | 0.00 | 38 | 1017.3 |
| 20260510170529 | 61 | 303 | 2.6 | 7.8 | 0.00 | 0.00 | 0.00 | 37 | 1017.6 |
| 20260510170025 | 61 | 310 | 2.6 | 8.7 | 0.00 | 0.00 | 0.00 | 38 | 1017.6 |
| 20260510165542 | 61 | 313 | 2.6 | 13.0 | 0.00 | 0.00 | 0.00 | 38 | 1017.5 |
| 20260510165020 | 61 | 327 | 2.6 | 9.6 | 0.00 | 0.00 | 0.00 | 39 | 1017.5 |
| 20260510164536 | 60 | 328 | 2.6 | 11.3 | 0.00 | 0.00 | 0.00 | 37 | 1017.5 |
| 20260510164032 | 60 | 342 | 3.5 | 8.7 | 0.00 | 0.00 | 0.00 | 37 | 1017.5 |
| 20260510163549 | 60 | 331 | 3.5 | 9.6 | 0.00 | 0.00 | 0.00 | 39 | 1017.4 |
| 20260510163026 | 60 | 317 | 3.5 | 9.6 | 0.00 | 0.00 | 0.00 | 39 | 1017.4 |
| 20260510162523 | 59 | 313 | 2.6 | 12.2 | 0.00 | 0.00 | 0.00 | 39 | 1017.4 |
| 20260510162020 | 59 | 310 | 2.6 | 11.3 | 0.00 | 0.00 | 0.00 | 41 | 1017.3 |
| 20260510161538 | 59 | 1 | 1.7 | 3.5 | 0.00 | 0.00 | 0.00 | 41 | 1017.4 |
| 20260510161034 | 59 | 316 | 0.9 | 3.5 | 0.00 | 0.00 | 0.00 | 41 | 1017.5 |
| 20260510160531 | 59 | 330 | 1.7 | 6.1 | 0.00 | 0.00 | 0.00 | 40 | 1017.4 |
| 20260510160029 | 59 | 297 | 2.6 | 8.7 | 0.00 | 0.00 | 0.00 | 41 | 1017.4 |
| 20260510155526 | 59 | 308 | 1.7 | 6.1 | 0.00 | 0.00 | 0.00 | 41 | 1017.4 |
| 20260510155023 | 59 | 309 | 1.7 | 6.1 | 0.00 | 0.00 | 0.00 | 43 | 1017.3 |
| 20260510154520 | 60 | 276 | 1.7 | 7.0 | 0.00 | 0.00 | 0.00 | 44 | 1017.3 |
| 20260510154018 | 60 | 154 | 1.7 | 6.1 | 0.00 | 0.00 | 0.00 | 46 | 1017.2 |
| 20260510153553 | 60 | 255 | 0.9 | 3.5 | 0.00 | 0.00 | 0.00 | 45 | 1017.2 |
| 20260510153030 | 59 | 289 | 0.9 | 3.5 | 0.00 | 0.00 | 0.00 | 47 | 1017.2 |
| 20260510152527 | 59 | 328 | 0.9 | 2.6 | 0.00 | 0.00 | 0.00 | 48 | 1017.4 |
| 20260510152023 | 58 | 253 | 0.9 | 5.2 | 0.00 | 0.00 | 0.00 | 47 | 1017.3 |
| 20260510151521 | 58 | 303 | 0.9 | 3.5 | 0.00 | 0.00 | 0.00 | 46 | 1017.2 |
| 20260510151018 | 58 | 306 | 1.7 | 7.8 | 0.00 | 0.00 | 0.00 | 46 | 1017.3 |
| 20260510150534 | 57 | 320 | 1.7 | 3.5 | 0.00 | 0.00 | 0.00 | 46 | 1017.3 |